Flag for Germany Weather past 2 weeks in Bramsche, Lower Saxony, Germany

Now
36 °F

Clear.


Feels Like: 33 °F
Forecast: 35 / 43 °F
Wind: 5 mph from Southwest

Location: Muenster / Osnabrueck

Current Time: Mar 3, 2015 at 5:51:57 AM

Latest Report: Mar 3, 2015 at 5:00 AM


Visibility: 19 mi

Pressure: 29.99 "Hg

Humidity: 80%

Dew point: 31 °F

Location of BramscheLocation

Historic Weather in Bramsche — Graph

°F

Bramsche temperature yesterday

Maximum temperature yesterday: 48 °F (at 3:00 PM)
Minimum temperature yesterday: 36 °F (at 9:00 PM)
Average temperature yesterday: 41 °F

Past Weeks' High & Low Weather Summary

 TemperatureHumidityPressure
High50 °F (Mar 1, 5:00 PM)100% (Feb 17, 10:00 PM)30.76 "Hg (Feb 17, 10:00 PM)
Low26 °F (Feb 17, 4:00 AM)46% (Feb 28, 2:00 PM)29.29 "Hg (Feb 21, 6:00 AM)
Average39 °F82%29.92 "Hg
* Reported Feb 16 4:00 AM — Mar 3 4:00 AM, Bramsche, Weather by CustomWeather, © 2015

Note: Actual official high and low records may vary slightly from our data, if they occured in-between our weather recording intervals... More about our weather records

Advertising

Bramsche weather history for previous 24 hours

 ConditionsComfort  
Time TempWeatherWind HumidityBarometerVisibility
4:00 AM
Tue, Mar 3
37 °FClear.7 mph80%29.98 "Hg19 mi
3:00 AM37 °FClear.7 mph74%29.97 "Hg19 mi
2:00 AM37 °FClear.6 mph75%29.96 "Hg19 mi
1:00 AM38 °FClear.8 mph76%29.93 "Hg19 mi
12:00 AM37 °FClear.9 mph79%29.90 "Hg19 mi
11:00 PM
Mon, Mar 2
36 °FPassing clouds.8 mph79%29.88 "Hg19 mi
10:00 PM36 °FOvercast.5 mph86%29.84 "Hg19 mi
9:00 PM36 °FThunderstorms. Overcast.7 mph89%29.81 "Hg19 mi
8:00 PM38 °FPassing clouds.5 mph78%29.77 "Hg19 mi
7:00 PM38 °FPassing clouds.6 mph89%29.76 "Hg19 mi
6:00 PM37 °FLow clouds.6 mph93%29.72 "Hg8 mi
5:00 PM42 °FSprinkles. Overcast.13 mph74%29.68 "Hg7 mi
4:00 PM46 °FOvercast.9 mph53%29.64 "Hg19 mi
3:00 PM48 °FPartly sunny.12 mph51%29.63 "Hg19 mi
2:00 PM47 °FPartly sunny.8 mph54%29.63 "Hg19 mi
1:00 PM46 °FPartly sunny.12 mph54%29.63 "Hg19 mi
12:00 PM44 °FScattered clouds.12 mph59%29.62 "Hg19 mi
11:00 AM43 °FScattered clouds.12 mph63%29.61 "Hg16 mi
10:00 AM41 °FScattered clouds.10 mph69%29.58 "Hg16 mi
9:00 AM40 °FPassing clouds.9 mph74%29.57 "Hg12 mi
8:00 AM39 °FPassing clouds.7 mph73%29.54 "Hg12 mi
7:00 AM39 °FPassing clouds.9 mph72%29.50 "Hg19 mi
6:00 AM40 °FPassing clouds.9 mph70%29.47 "Hg25 mi
5:00 AM41 °FOvercast.10 mph72%29.47 "Hg25 mi
Weather by CustomWeather, © 2015

See weather overviewHow to use our weather pages